#timestamp,LO_Frequency,Hit,StdDev 
1666976415.1,286047001.5,N
1666976416.0,286047001.5,N
1666976435.8,286047001.4,N
1666976455.7,286047002.2,N
1666976475.5,286047002.8,N
1666976495.3,286047002.1,N
1666976515.2,286047002.7,N
1666976535.0,286047004.4,Y
1666976535.9,286047004.4,P
1666976555.8,286047000.2,N
1666976575.6,286047002.7,N
1666976595.4,286047001.6,N
1666976615.3,286047004.0,N
1666976635.1,286047004.0,N
1666976655.9,286047001.9,N
1666976675.7,286047003.8,N
1666976695.5,286047003.7,N
1666976715.4,286047003.2,N
1666976735.2,286047006.0,Y
1666976755.0,286047002.2,P
1666976755.9,286047002.2,P
1666976775.8,286047001.0,P
1666976795.6,286046998.8,N
1666976815.5,286046998.2,N
1666976835.3,286046996.6,N
1666976855.1,286046996.5,N
1666976875.9,286046994.9,N
1666976895.7,286046994.9,N
1666976915.5,286046996.3,N
1666976935.4,286046995.0,N
1666976955.2,286046997.7,N
1666976975.1,286046993.3,N
1666976976.0,286046993.3,N
1666976995.8,286046994.9,N
1666977015.6,286046995.4,N
1666977035.5,286046996.9,N
1666977055.3,286046996.8,N
1666977075.1,286046996.9,N
1666977095.9,286046999.1,N
1666977115.7,286046998.7,N
1666977135.6,286046998.7,N
1666977155.4,286046998.7,N
1666977175.2,286046998.9,N
1666977195.1,286046999.1,N
1666977196.0,286046999.1,N
1666977215.8,286046997.6,N
1666977235.6,286046995.3,N
1666977255.5,286046997.6,N
1666977275.3,286046997.7,N
1666977295.2,286046998.4,N
1666977315.9,286046998.9,N
1666977335.7,286046998.8,N
1666977355.6,286047000.9,N
1666977375.4,286046999.0,N
1666977395.2,286046998.4,N
1666977415.1,286046999.0,N
1666977416.0,286046999.0,N
1666977435.8,286046996.7,N
1666977455.7,286046996.9,N
1666977475.5,286046997.6,N
1666977495.3,286046996.9,N
1666977515.2,286046997.2,N
1666977535.0,286046998.3,N
1666977535.9,286046998.3,N
1666977555.7,286046998.8,N
1666977575.6,286046998.6,N
1666977595.4,286046998.7,N
1666977615.3,286046999.5,N
1666977635.1,286046999.3,N
1666977636.0,286046999.3,N
1666977655.8,286046998.7,N
1666977675.7,286047000.8,N
1666977695.5,286046998.8,N
1666977715.3,286047000.4,N
1666977735.2,286046997.2,N
1666977755.0,286046996.9,N
1666977755.9,286046996.9,N
1666977775.8,286046996.5,Y
1666977795.6,286047000.6,P
1666977815.4,286046999.7,N
1666977835.3,286047002.6,N
1666977855.1,286047000.5,N
1666977875.9,286046999.8,N
1666977895.7,286047000.2,N
1666977915.5,286047000.7,N
1666977935.4,286046999.3,N
1666977955.2,286046996.5,Y
1666977975.0,286046999.6,P
1666977975.9,286046999.6,N
1666977995.8,286046998.1,P
1666978015.6,286046998.2,N
1666978035.5,286047000.6,N
1666978055.3,286047000.8,N
1666978075.1,286046997.0,Y
1666978095.9,286046999.4,P
1666978115.7,286046998.5,P
1666978135.5,286047000.5,N
1666978155.4,286047002.2,Y
1666978175.2,286047002.4,P
1666978195.1,286047002.1,N
1666978196.0,286047002.1,N
1666978215.8,286047003.8,Y
1666978235.6,286047002.8,P
1666978255.5,286047002.4,P
1666978275.3,286046998.1,P
1666978295.2,286046998.8,N
1666978315.9,286047000.9,N
1666978335.7,286047000.9,N
1666978355.6,286047002.3,N
1666978375.4,286047000.4,N
1666978395.3,286047000.6,N
1666978415.1,286047000.4,N
1666978416.0,286047000.4,N
1666978435.8,286047000.0,N
1666978455.7,286046999.7,N
1666978475.5,286047002.8,N
1666978495.3,286046999.8,N
1666978515.2,286046999.7,N
1666978535.0,286047000.2,N
1666978535.9,286047000.2,N
1666978555.8,286047002.1,N
1666978575.6,286047001.3,N
1666978595.4,286047001.9,N
1666978615.3,286047001.4,N
1666978635.1,286047001.3,N
1666978655.8,286047001.6,N
1666978675.7,286047002.5,N
1666978695.5,286047001.4,N
1666978715.4,286047002.4,N
1666978735.2,286047001.9,N
1666978755.0,286047001.9,N
1666978755.9,286047001.9,N
1666978775.8,286047000.3,N
1666978795.6,286047000.3,N
1666978815.4,286047000.2,N
1666978835.3,286047000.2,N
1666978855.1,286047000.3,N
1666978875.9,286047000.3,N
1666978895.7,286047001.0,N
1666978915.5,286047002.8,Y
1666978935.4,286047002.7,P
1666978955.2,286047000.2,N
1666978975.1,286047002.6,N
1666978976.0,286047002.6,N
1666978995.8,286047002.8,N
1666979015.6,286047002.6,N
1666979035.5,286047002.6,N
1666979055.3,286047002.8,Y
1666979075.2,286046998.7,P
1666979095.9,286046999.0,N
1666979115.7,286046999.6,N
1666979135.6,286046997.0,N
1666979155.4,286046996.6,N
1666979175.2,286046996.9,N
1666979195.1,286046999.3,N
1666979196.0,286046999.3,N
1666979215.8,286046996.6,N
1666979235.7,286046999.2,N
1666979255.5,286046998.4,N
1666979275.3,286046996.9,N
1666979295.2,286046997.0,N
1666979315.0,286046996.6,N
1666979315.9,286046996.6,N
1666979335.8,286047011.9,Y
1666979355.6,286046998.4,P
1666979375.4,286046999.2,P
1666979395.3,286046997.0,P
1666979415.1,286046999.6,N
1666979435.8,286046999.5,N
1666979455.7,286046998.1,N
1666979475.5,286046999.1,N
1666979495.4,286046997.6,N
1666979515.2,286046995.3,Y
1666979535.0,286046997.9,P
1666979535.9,286046997.9,P
1666979555.8,286046995.3,P
1666979575.6,286046996.6,N
1666979595.5,286046999.2,N
1666979615.3,286046999.6,N
1666979635.1,286046996.5,N
1666979655.9,286047000.8,N
1666979675.7,286047000.9,N
1666979695.6,286047000.6,N
1666979715.4,286047001.1,N
1666979735.2,286047002.7,N
1666979755.1,286047000.2,N
1666979756.0,286047000.2,N
1666979775.8,286047002.7,N
1666979795.6,286047000.6,N
1666979815.5,286046999.8,N
1666979835.3,286047002.7,N
1666979855.2,286047000.9,N
1666979875.9,286047002.6,N
1666979895.7,286047002.6,N
1666979915.6,286047002.8,N
1666979935.4,286046998.5,N
1666979955.2,286047000.9,N
1666979975.1,286046999.9,N
1666979976.0,286046999.9,N
1666979995.8,286047003.5,N
